Погода в Кенджу

Южная Корея     35°50′50″N   129°12′25″E
темп.,
°C
ветер,
м/с
пор.,
м/с
влажн.,
%
обл.,
%
осадки,
мм/ч
давл.,
гПа
погр.,
м
27 сентября, пн
пн2700:00+17с2583100 0.0 1019216
03:00+17с2486100 0.1 1018215
06:00+18с2791100 0.3 1017501
09:00+19ссв2690100 0.9 1017537
12:00+20св458085 0.6 1016949
15:00+21св346896 0.8 1015981
18:00+18св25817 0.0 1016267
21:00+15ссз01905 0.0 101613
28 сентября, вт
вт2800:00+15сз118999 0.0 101617
03:00+17с2282100 0.0 101553
06:00+17ссз2382100 0.0 101584
09:00+18ссз2384100 0.0 1016158
12:00+19с3487100 0.0 1015524
15:00+20с2385100 0.0 1013477
18:00+19с2393100 0.0 101398
21:00+19ссз129699 0.1 101448
29 сентября, ср
ср2900:00+18с1197100 0.0 101327
03:00+19зюз009694 0.1 101113
06:00+18ююз119731 0.0 101011
09:00+21ю249192 0.0 1010199
12:00+26ююз587386 0.3 10081223
15:00+25ююз41072100 1.1 10071133
18:00+21ю2390100 0.6 100765
21:00+20сз1199100 7.9 100937
30 сентября, чт
чт3000:00+20ссв1199100 2.8 100827
03:00+20с2399100 4.4 1008168
06:00+19с249990 0.1 1009235
09:00+20с238645 0.1 1010504
12:00+24ссв237186 0.1 10091067
15:00+23св44682 0.1 10091009
18:00+19ссв22910 0.0 101021
21:00+17с12960 0.0 101118
1 октября, пт
пт100:00+16ссз11960 0.0 101115
03:00+16сз11970 0.0 101014
06:00+15сз11950 0.0 101012
09:00+21ссз12780 0.0 1011250
12:00+26ссз22590 0.0 1010877
15:00+27зсз23480 0.0 10091228
18:00+20вюв11820 0.0 101014
21:00+17ю01950 0.0 101211